sat.trackr.live / text

‹ back to catalog

STARLINK-31817

NORAD 59731 · 2024-090B

PAYLOAD ACTIVE UNKNOWN

§ Identity

Operator
Country
US
Launch date
2024-05-13
Launch site
AFETR
Launch vehicle
Mass (kg)
RCS (m²)

Purposes: comms

External: N2YO · Heavens-Above · Gunter

§ Orbital elements

Epoch: 2026-09-21T09:28:24.285792Z

Period
94.27 min
Inclination
43.0008°
Eccentricity
0.0000963
Mean motion
15.27576896 rev/d
Perigee alt
482.4 km
Apogee alt
483.7 km
Semi-major
6,861.2 km
B*
2.2451e-5
RAAN
158.0010°
Arg perigee
270.1475°
Mean anomaly
89.9266°
Rev number
13,337

§ Raw data

STARLINK-318171 59731U 24090B   26264.39472553  .00000356  00000+0  22451-4 0  99992 59731  43.0008 158.0010 0000963 270.1475  89.9266 15.27576896133374

JSON: /api/v1/satellites/59731 · /tle

For live sub-satellite position, see the globe view (requires WebGL).

§ Visibility from observer

Set your observer location to see the next 7 days of passes ≥ 10°. The values pass through the URL so the page stays shareable.

No JS? Fill the form by hand. The geolocation button needs JavaScript.